Weather Roundup
Issued by NWS

Home | Current Version | Previous Version | Text Only | Print | Product List | Glossary On
Versions: 1 2 3 4 5 6 7 8 9 10 11 12 13 14 15 16 17 18 19 20 21 22 23 24 25 26 27 28 29 30 31 32 33 34 35 36 37 38 39 40 41 42 43 44 45 46 47 48 49 50
000
NZUS93 KARX 231410
HRRWXR

CURRENT HOURLY OBSERVATIONS ACROSS
MUCH OF THE UPPER MISSISSIPPI VALLEY
NATIONAL WEATHER SERVICE LA CROSSE WI
900 AM CDT SAT MAY 23 2015


...SOUTHEAST MINNESOTA...


CITY           SKY/WX    TMP DP  RH WIND       PRES   REMARKS
ROCHESTER      PTSUNNY   62  44  51 CALM      30.28R
ROCHESTER/MAYO PTSUNNY   61  43  51 CALM      30.27R
WINONA         SUNNY     59  46  63 E3        30.27S
AUSTIN         PTSUNNY   61  46  59 NE3       30.27R
ALBERT LEA     PTSUNNY   61  45  55 N5        30.27S
DODGE CENTER   CLOUDY    63  45  51 NW9       30.27R
PRESTON        PTSUNNY   61  46  57 CALM      30.28S
OWATONNA       CLOUDY    59  46  63 N6        30.27F
FARIBAULT      LGT RAIN  59  46  63 NW5       30.28R
$$

...ELSEWHERE IN MINNESOTA...


CITY           SKY/WX    TMP DP  RH WIND       PRES   REMARKS
MINNEAPOLIS    PTSUNNY   62  45  53 W6        30.26R
INTNL FALLS    SUNNY     64  42  44 W7        30.17S
DULUTH         SUNNY     68  38  33 W13       30.22S
RED WING       PTSUNNY   57  48  72 SE3       30.25S
REDWOOD FALLS  LGT RAIN  56  50  80 NE3       30.25R
MANKATO        CLOUDY    59  46  63 NE7       30.25F
WORTHINGTON    CLOUDY    57  46  67 SE9       30.23F
FAIRMONT       CLOUDY    57  46  67 SE5       30.26R
$$

...SOUTHWEST WISCONSIN...


CITY           SKY/WX    TMP DP  RH WIND       PRES   REMARKS
LA CROSSE      SUNNY     63  44  50 S9        30.28R
PRAIRIE DU CHI SUNNY     61  41  48 SE3       30.29S
BOSCOBEL       MOSUNNY   63  45  51 VRB3      30.30S
LONE ROCK      MOSUNNY   63  39  41 CALM      30.31R
PLATTEVILLE    MOSUNNY   62  41  46 SE8       30.31R
FORT MC COY    MOSUNNY   64  39  39 SW6       30.28S
CAMP DOUGLAS   MOSUNNY   63  43  48 S7        30.28S
VIROQUA        FAIR      61  41  48 S8        30.29R
WIS DELLS      SUNNY     64  33  32 S9        30.30F
$$

...ELSEWHERE IN WISCONSIN...


CITY           SKY/WX    TMP DP  RH WIND       PRES   REMARKS
MILWAUKEE      MOSUNNY   63  33  32 S13       30.34S
MADISON        MOSUNNY   62  36  37 S8        30.32S
GREEN BAY      SUNNY     62  35  36 SW10      30.32S
EAU CLAIRE     SUNNY     61  43  51 S5        30.26S
BLACK RVR FLS  FAIR      61  42  48 CALM      30.28R
MEDFORD        SUNNY     60  44  55 CALM      30.29S
WAUSAU         SUNNY     58  42  55 SW6       30.29S
WIS RAPIDS     SUNNY     62  37  39 S7        30.31S
MARSHFIELD     SUNNY     62  41  46 SW8       30.29S
RICE LAKE      SUNNY     61  41  48 SE7       30.28S
$$

...NORTHEAST IOWA...


CITY           SKY/WX    TMP DP  RH WIND       PRES   REMARKS
DECORAH        CLOUDY    61  46  59 SW6       30.28S
MASON CITY     CLOUDY    63  45  51 E5        30.28S
CHARLES CITY   CLOUDY    63  45  51 NE6       30.28S
OELWEIN        PTSUNNY   61  50  67 S6        30.30R
$$

...ELSEWHERE IN IOWA...


CITY           SKY/WX    TMP DP  RH WIND       PRES   REMARKS
DES MOINES     PTSUNNY   63  52  67 SE8       30.26S
IOWA CITY      PTSUNNY   66  51  58 CALM      30.31S
FORT DODGE     CLOUDY    63  48  59 SE8       30.25F
$$

...NORTHERN ILLINOIS...


CITY           SKY/WX    TMP DP  RH WIND       PRES   REMARKS
CHICAGO-OHARE  MOSUNNY   64  36  35 S12       30.34S
CHICAGO-MIDWAY MOSUNNY   67  36  31 S8        30.35R
MOLINE         SUNNY     68  53  58 SW5       30.30R
ROCKFORD       PTSUNNY   66  40  38 SE9       30.35R
PEORIA         SUNNY     68  52  56 S5        30.33R
$$

NOTE: "FAIR" INDICATES FEW OR NO CLOUDS BELOW 12,000 FEET WITH NO
SIGNIFICANT WEATHER AND/OR OBSTRUCTIONS TO VISIBILITY. WIND
SPEEDS ARE IN MILES-PER-HOUR.



USA.gov is the U.S. government's official web portal to all federal, state and local government web resources and services.